Location: Squirrel Cove
(50.1074°N, 124.9139°W)
Time: 23:43:34
(UTC-08:00)

BlueWalker 3 - Pass Details

Date: 05 December 2022
Orbit: 499 x 517 km, 53.2° (Epoch: 29 January)

Event Time Altitude Azimuth Distance (km) Brightness Sun altitude
Rises 19:47:35 0° 292° (WNW) 2,626 6.6 -32.5°
Reaches altitude 10° 19:49:53 10° 285° (WNW) 1,733 5.5 -32.8°
Enters shadow 19:50:52 17° 279° (W) 1,370 4.8 -33.0°
